SCP
0 0 0 0 0 0 0 0 0 0 0 0 0 0 0 0 0 0 0 0 0 0
0 0 0 0 0 0 0 0 0 0 0 0 0 0 0 0 0 0 0 0 0 0
0 0 0 0 0 0 0 0 0 0 0 0 0 0 0 0 0 0 0 0 0 0
0 0 0 0 0 0 0 0 0 0 0 0 0 0 0 0 0 0 0 0 0 0
0 0 0 0 0 0 0 0 0 0 0 0 0 0 0 0 0 0 0 0 0 0
0 0 0 0 0 0 0 0 0 0 0 0 0 0 0 0 0 0 0 0 0 0
0 0 0 0 0 0 0 0 0 0 0 0 0 0 0 0 0 0 0 0 0 0
0 0 0 0 0 0 0 0 0 0 0 0 0 0 0 0 0 0 0 0 0 0
0 0 0 0 0 0 0 0 0 0 0 0 0 0 0 0 0 0 0 0 0 0
0 0 0 0 0 0 0 0 0 0 0 0 0 0 0 0 0 0 0 0 0 0
0 0 0 0 0 0 0 0 0 0 0 0 0 0 0 0 0 0 0 0 0 0
0 0 0 0 0 0 0 0 0 0 0 0 0 0 0 0 0 0 0 0 0 0
0 0 0 0 0 0 0 0 0 0 0 0 0 0 0 0 0 0 0 0 0 0
0 0 0 0 0 0 0 0 0 0 0 0 0 0 0 0 0 0 0 0 0 0
Wind_Speed_500mb
59 55 48 43 38 34 31 26 21 16 13 10 7 8 10 11 14 18 20 20 19 17
61 54 48 43 39 35 30 24 20 16 12 8 6 7 10 13 16 20 23 21 20 19
58 51 46 43 40 35 29 24 19 15 11 8 4 5 8 11 14 18 22 21 18 19
56 51 48 44 38 32 27 23 20 16 11 6 1 3 7 9 13 16 18 17 16 18
53 52 48 42 36 31 28 25 20 16 11 5 2 6 8 10 13 15 16 17 19 22
54 50 45 40 36 32 28 25 21 16 9 3 3 6 9 11 14 17 19 21 22 25
53 48 44 39 36 32 29 25 19 12 7 3 2 4 7 11 15 19 22 23 24 24
50 47 43 40 36 33 29 22 17 12 8 6 5 5 9 12 17 21 24 26 24 23
52 48 44 41 39 33 27 23 19 15 12 9 8 8 9 13 18 22 27 30 27 23
53 48 46 42 38 33 28 23 19 17 15 12 10 10 11 13 18 22 28 32 34 26
49 46 46 46 41 35 29 24 21 19 17 15 11 13 12 13 16 21 26 31 35 33
52 56 54 52 44 37 31 27 23 19 16 14 14 15 14 14 15 19 23 29 33 34
59 59 59 52 45 39 33 28 23 19 17 15 18 17 15 16 15 17 21 26 31 35
72 61 57 53 50 41 34 29 25 20 16 20 19 18 15 16 17 17 20 26 32 34
Wind_Direction_500mb
206 206 205 207 206 203 201 203 207 215 224 234 251 278 294 303 312 325 324 319 310 303
200 201 202 199 198 197 196 199 205 208 210 219 248 284 309 324 333 331 325 316 307 303
195 196 196 194 193 191 193 195 197 196 199 210 244 306 329 339 341 334 329 325 319 312
191 190 189 188 187 187 188 188 189 190 191 195 221 355 358 349 342 340 334 327 323 316
188 186 186 184 184 183 184 184 184 184 185 175 63 23 11 358 343 336 330 323 314 312
187 185 183 183 183 182 183 182 183 183 175 146 41 17 7 356 344 333 325 319 317 315
187 185 184 183 183 183 182 184 183 178 177 202 300 342 352 354 347 341 334 323 317 317
188 186 185 185 184 186 186 184 186 190 204 227 266 306 333 346 350 347 343 334 321 322
191 191 188 189 189 189 190 192 197 206 214 231 259 288 317 338 347 347 344 341 332 322
196 193 195 193 192 195 198 202 207 214 224 235 253 282 306 329 339 346 347 344 339 327
200 203 202 199 197 198 203 207 215 221 228 240 256 272 294 316 335 344 348 348 344 335
214 210 204 202 198 199 204 212 216 222 236 252 269 271 289 308 331 339 346 347 348 342
222 216 211 204 199 201 206 208 212 218 233 256 258 267 280 298 314 332 338 347 349 346
219 216 212 205 201 202 203 205 204 215 240 251 253 263 272 289 304 321 337 347 349 347
Wind_Speed_850mb
59 55 48 43 38 34 31 26 21 16 13 10 7 8 10 11 14 18 20 20 19 17
61 54 48 43 39 35 30 24 20 16 12 8 6 7 10 13 16 20 23 21 20 19
58 51 46 43 40 35 29 24 19 15 11 8 4 5 8 11 14 18 22 21 18 19
56 51 48 44 38 32 27 23 20 16 11 6 1 3 7 9 13 16 18 17 16 18
53 52 48 42 36 31 28 25 20 16 11 5 2 6 8 10 13 15 16 17 19 22
54 50 45 40 36 32 28 25 21 16 9 3 3 6 9 11 14 17 19 21 22 25
53 48 44 39 36 32 29 25 19 12 7 3 2 4 7 11 15 19 22 23 24 24
50 47 43 40 36 33 29 22 17 12 8 6 5 5 9 12 17 21 24 26 24 23
52 48 44 41 39 33 27 23 19 15 12 9 8 8 9 13 18 22 27 30 27 23
53 48 46 42 38 33 28 23 19 17 15 12 10 10 11 13 18 22 28 32 34 26
49 46 46 46 41 35 29 24 21 19 17 15 11 13 12 13 16 21 26 31 35 33
52 56 54 52 44 37 31 27 23 19 16 14 14 15 14 14 15 19 23 29 33 34
59 59 59 52 45 39 33 28 23 19 17 15 18 17 15 16 15 17 21 26 31 35
72 61 57 53 50 41 34 29 25 20 16 20 19 18 15 16 17 17 20 26 32 34
Wind_Direction_850mb
206 206 205 207 206 203 201 203 207 215 224 234 251 278 294 303 312 325 324 319 310 303
200 201 202 199 198 197 196 199 205 208 210 219 248 284 309 324 333 331 325 316 307 303
195 196 196 194 193 191 193 195 197 196 199 210 244 306 329 339 341 334 329 325 319 312
191 190 189 188 187 187 188 188 189 190 191 195 221 355 358 349 342 340 334 327 323 316
188 186 186 184 184 183 184 184 184 184 185 175 63 23 11 358 343 336 330 323 314 312
187 185 183 183 183 182 183 182 183 183 175 146 41 17 7 356 344 333 325 319 317 315
187 185 184 183 183 183 182 184 183 178 177 202 300 342 352 354 347 341 334 323 317 317
188 186 185 185 184 186 186 184 186 190 204 227 266 306 333 346 350 347 343 334 321 322
191 191 188 189 189 189 190 192 197 206 214 231 259 288 317 338 347 347 344 341 332 322
196 193 195 193 192 195 198 202 207 214 224 235 253 282 306 329 339 346 347 344 339 327
200 203 202 199 197 198 203 207 215 221 228 240 256 272 294 316 335 344 348 348 344 335
214 210 204 202 198 199 204 212 216 222 236 252 269 271 289 308 331 339 346 347 348 342
222 216 211 204 199 201 206 208 212 218 233 256 258 267 280 298 314 332 338 347 349 346
219 216 212 205 201 202 203 205 204 215 240 251 253 263 272 289 304 321 337 347 349 347